Location: Dunedin
(45.8670°S, 170.5000°E)
Time: 04:45:19
(UTC+13:00)

Cosmos 1763 Rocket - Pass Details

Date: 24 January 2019
Orbit: 732 x 780 km, 74.0° (Epoch: 16 October)

Event Time Altitude Azimuth Distance (km) Brightness Sun altitude
Rises 22:24:12 0° 205° (SSW) 3,278 8.1 -10.0°
Reaches altitude 10° 22:26:38 10° 207° (SSW) 2,337 7.3 -10.3°
Maximum altitude 22:31:52 63° 287° (WNW) 857 3.9 -11.0°
Drops below altitude 10° 22:36:58 10° 7° (N) 2,275 5.5 -11.6°
Enters shadow 22:37:18 - 7° (N) 2,403 5.6 -11.7°
